[[{"header":{"parameterUnit":"m.s-1","parameterCategory":1,"la1":30.2991,"la2":30.254,"lo1":-89.0895,"lo2":-89.0444,"dy":0.0017,"dx":0.0017,"nx":28,"ny":28,"refTime":"2024-04-14T21:00:00:Z","depth":0,"parameterNumber":2,"parameterNumberName":"U-component_of_WINDS"},"data":[0,0,0,0,0,0,0,0,0,0,0,0,0,0,0,0,0,0,0,0,0,0,0,0,0,0,0,0,0,0,0,0,0,0,0,0,0,0,0,0,0,0,0,0,0,0,0,0,0,0,0,0,0,0,0,0,0,0,-1.7357,-1.7357,0,-1.7381,-1.7381,-1.7381,-1.7354,-1.7353,-1.7352,-1.7351,-1.7376,-1.7378,-1.7379,0,0,0,0,0,0,0,0,0,0,0,0,0,-1.7289,-1.7291,-1.7357,-1.7357,-1.7358,-1.7381,-1.7381,-1.7382,-1.7354,-1.7353,-1.7352,-1.7351,-1.7376,-1.7378,-1.738,0,0,0,0,0,0,0,0,0,0,0,0,0,-1.7317,-1.7291,-1.7357,-1.7347,-1.7346,-1.7381,-1.7381,-1.7382,-1.7355,-1.7353,-1.7351,-1.735,-1.7375,-1.7377,-1.738,-1.7426,0,0,-1.7387,-1.7388,0,0,0,0,0,0,0,0,-1.7315,-1.7319,-1.7348,-1.7348,-1.7347,-1.7363,-1.7367,-1.7397,-1.7355,-1.7351,-1.7351,-1.7349,-1.7373,-1.7376,-1.7384,-1.7427,-1.7428,-1.7388,-1.7389,-1.739,-1.7391,0,0,0,0,0,0,0,-1.7313,-1.7318,-1.7367,-1.7349,-1.7348,-1.7342,-1.7344,-1.7372,-1.7371,-1.7352,-1.735,-1.7353,-1.7373,-1.7381,-1.7384,-1.7429,-1.7388,-1.739,-1.7391,-1.7392,-1.7511,-1.7513,0,0,0,0,0,0,-1.7312,-1.7317,-1.7366,-1.7367,-1.7327,-1.7344,-1.7346,-1.7359,-1.737,-1.737,-1.7354,-1.7351,-1.7378,-1.7381,-1.7385,-1.7439,-1.739,-1.7392,-1.7394,-1.7509,-1.7511,-1.7513,0,0,0,0,0,0,-1.7311,-1.7317,-1.7365,-1.7341,-1.7347,-1.7347,-1.7362,-1.7361,-1.7369,-1.7372,-1.7372,-1.7363,-1.7377,-1.7381,-1.7416,-1.744,-1.7393,-1.7396,-1.7507,-1.751,-1.7512,-1.7548,0,0,0,0,0,0,-1.7309,-1.7317,-1.7334,-1.7342,-1.7348,-1.7395,-1.7363,-1.7362,-1.7374,-1.737,-1.7381,-1.7381,-1.7376,-1.7412,-1.7418,-1.7442,-1.7398,-1.7505,-1.7509,-1.7512,-1.7545,-1.7552,-1.7558,0,0,0,0,0,-1.7307,-1.7343,-1.7335,-1.7341,-1.737,-1.7397,-1.74,-1.7394,-1.7376,-1.7393,-1.7395,-1.738,-1.7436,-1.7416,-1.7423,-1.7447,-1.7504,-1.7508,-1.7511,-1.7542,-1.755,-1.7557,0,0,0,0,0,0,-1.7338,-1.7344,-1.7335,-1.7375,-1.7386,-1.7392,-1.7414,-1.7403,-1.7419,-1.7415,-1.7407,-1.7409,-1.7446,-1.745,-1.7428,-1.7493,-1.7467,-1.7472,-1.7488,-1.7496,-1.7502,-1.75,-1.74,0,0,0,0,0,-1.735,-1.7371,-1.7375,-1.741,-1.7416,-1.7414,-1.7425,-1.7419,-1.743,-1.7434,-1.7439,-1.745,-1.747,-1.7483,-1.7502,-1.7546,-1.7548,-1.7566,-1.7572,-1.7578,-1.7582,-1.7605,-1.7614,-1.7526,-1.7526,-1.7526,0,0,-1.7374,-1.738,-1.7393,-1.7416,-1.7424,-1.7446,-1.7418,-1.7443,-1.7459,-1.7438,-1.7471,-1.7475,-1.7487,-1.7526,-1.7544,-1.7531,-1.7607,-1.7582,-1.7587,-1.7588,-1.761,-1.7619,-1.7626,-1.7528,-1.7528,-1.7528,0,0,-1.7428,-1.7435,-1.7465,-1.7473,-1.7485,-1.7483,-1.7491,-1.7499,-1.7501,-1.7533,-1.7518,-1.7538,-1.7573,-1.7582,-1.7591,-1.765,-1.7638,-1.7657,-1.7689,-1.7712,-1.7719,-1.7725,-1.7746,-1.7754,-1.7661,-1.7661,-1.7661,0,-1.7457,-1.7489,-1.7482,-1.7507,-1.7518,-1.75,-1.753,-1.7539,-1.7556,-1.7564,-1.755,-1.7593,-1.76,-1.7641,-1.7655,-1.7664,-1.7672,-1.7655,-1.7719,-1.7725,-1.773,-1.775,-1.7758,-1.7664,-1.7663,-1.7663,-1.7663,0,-1.7524,-1.7546,-1.7569,-1.7586,-1.7599,-1.7627,-1.7624,-1.7638,-1.7632,-1.7632,-1.7666,-1.7673,-1.7693,-1.7703,-1.7696,-1.7743,-1.7735,-1.772,-1.7694,-1.7741,-1.7759,-1.7767,-1.7667,-1.7666,-1.7665,-1.7665,0,0,-1.7598,-1.761,-1.7619,-1.7626,-1.7638,-1.7656,-1.7683,-1.7702,-1.7715,-1.7728,-1.7751,-1.7781,-1.7767,-1.7777,-1.7772,-1.7792,-1.7838,-1.7775,-1.7775,-1.7786,-1.789,-1.7901,-1.791,-1.783,-1.7832,-1.7833,-1.7889,0,-1.7653,-1.7699,-1.7693,-1.7738,-1.776,-1.7743,-1.7767,-1.7778,-1.7779,-1.7797,-1.7799,-1.782,-1.78,-1.7807,-1.7826,-1.7829,-1.7859,-1.7825,-1.7851,-1.7852,-1.7848,-1.7919,-1.7931,-1.7983,-1.7896,-1.7897,-1.7898,0,-1.7722,-1.7737,-1.7784,-1.7793,-1.7802,-1.7823,-1.784,-1.7858,-1.787,-1.7869,-1.7881,-1.7873,-1.79,-1.7874,-1.7913,-1.7889,-1.79,-1.7903,-1.7905,-1.7907,-1.7878,-1.7922,-1.8,-1.8008,-1.791,-1.7909,-1.7908,0,-1.7771,-1.7804,-1.7836,-1.7843,-1.7854,-1.7869,-1.7875,-1.7885,-1.7897,-1.7912,-1.792,-1.7938,-1.7948,-1.7963,-1.796,-1.7941,-1.7999,-1.7973,-1.7999,-1.7999,-1.8011,-1.801,-1.8091,-1.802,-1.8019,-1.8019,-1.8019,0,-1.7833,-1.7862,-1.7858,-1.7878,-1.791,-1.7903,-1.7936,-1.7939,-1.7948,-1.7969,-1.7957,-1.7976,-1.7971,-1.799,-1.7988,-1.802,-1.8025,-1.8025,-1.8024,-1.8026,-1.8026,-1.8032,-1.8028,-1.8021,-1.8021,-1.8021,-1.802,0,-1.7893,-1.7891,-1.7925,-1.7933,-1.7935,-1.7959,-1.7966,-1.7985,-1.7985,-1.8011,-1.8017,-1.8018,-1.804,-1.8039,-1.8064,-1.8062,-1.8102,-1.8097,-1.8098,-1.8096,-1.8123,-1.812,-1.821,-1.8221,-1.8143,-1.8144,-1.8144,0,-1.7931,-1.7953,-1.7964,-1.7976,-1.7983,-1.8003,-1.8015,-1.801,-1.8023,-1.8038,-1.8055,-1.8076,-1.8093,-1.8129,-1.8133,-1.8152,-1.8147,-1.8177,-1.815,-1.8151,-1.8147,-1.8145,-1.8147,-1.8182,-1.8183,-1.8184,-1.8184,0,-1.8,-1.7999,-1.8016,-1.8034,-1.8049,-1.8062,-1.8075,-1.8086,-1.8082,-1.8098,-1.812,-1.8133,-1.8159,-1.818,-1.8198,-1.8204,-1.8194,-1.8193,-1.82,-1.8202,-1.8201,-1.8201,-1.8112,-1.8191,-1.819,-1.819,-1.8189,-1.8189,-1.8051,-1.8069,-1.8079,-1.81,-1.8108,-1.8121,-1.8138,-1.8141,-1.816,-1.818,-1.8176,-1.8201,-1.8213,-1.8236,-1.8244,-1.8264,-1.8253,-1.8264,-1.8266,-1.8269,-1.8271,-1.8199,-1.8268,-1.8267,-1.8267,-1.8267,-1.8267,0,-1.8118,-1.8124,-1.8143,-1.8161,-1.8177,-1.8165,-1.8179,-1.8193,-1.8215,-1.8226,-1.8243,-1.8269,-1.829,-1.8295,-1.8314,-1.8329,-1.8325,-1.8335,-1.8333,-1.8335,-1.828,-1.8272,-1.8338,-1.8338,-1.8338,-1.8338,-1.8338,-1.8338,-1.8156,-1.8187,-1.8186,-1.8222,-1.8228,-1.8252,-1.826,-1.8272,-1.8281,-1.831,-1.8327,-1.833,-1.8339,-1.8359,-1.8378,-1.8379,-1.8387,-1.8398,-1.8397,-1.8346,-1.8339,-1.8332,-1.8324,-1.84,-1.84,-1.845,-1.845,-1.8451]},{"header":{"parameterUnit":"m.s-1","parameterCategory":1,"la1":30.2991,"la2":30.254,"lo1":-89.0895,"lo2":-89.0444,"dy":0.0017,"dx":0.0017,"nx":28,"ny":28,"refTime":"2024-04-14T21:00:00:Z","depth":0,"parameterNumber":3,"parameterNumberName":"V-component_of_WINDS"},"data":[0,0,0,0,0,0,0,0,0,0,0,0,0,0,0,0,0,0,0,0,0,0,0,0,0,0,0,0,0,0,0,0,0,0,0,0,0,0,0,0,0,0,0,0,0,0,0,0,0,0,0,0,0,0,0,0,0,0,2.0002,2.0001,0,1.9932,1.9931,1.993,1.9873,1.9872,1.9871,1.9871,1.9797,1.9796,1.9795,0,0,0,0,0,0,0,0,0,0,0,0,0,2.0082,2.0081,2.0002,2.0001,2.0,1.9932,1.9931,1.993,1.9873,1.9872,1.9871,1.987,1.9798,1.9796,1.9795,0,0,0,0,0,0,0,0,0,0,0,0,0,2.0034,2.0081,2.0002,1.9963,1.9959,1.9932,1.9931,1.993,1.9873,1.9872,1.9871,1.987,1.9798,1.9796,1.9794,1.98,0,0,1.9788,1.9787,0,0,0,0,0,0,0,0,2.0036,2.0031,1.997,1.9966,1.9961,1.991,1.9933,1.9886,1.9873,1.9905,1.9871,1.987,1.9836,1.983,1.9819,1.9797,1.9794,1.9788,1.9787,1.9786,1.9785,0,0,0,0,0,0,0,2.004,2.0033,1.9974,1.9969,1.9963,1.9948,1.994,1.9924,1.9876,1.9903,1.9898,1.9891,1.9833,1.9821,1.9817,1.9792,1.9788,1.9786,1.9785,1.9784,1.977,1.9771,0,0,0,0,0,0,2.005,2.0037,1.9976,1.9972,1.9997,1.9948,1.9939,1.9927,1.9876,1.9868,1.9892,1.9888,1.9825,1.982,1.9814,1.9817,1.9786,1.9784,1.9783,1.977,1.9771,1.9772,0,0,0,0,0,0,2.0051,2.0045,1.9979,2.0003,1.9993,1.9947,1.9935,1.9926,1.9915,1.9868,1.9859,1.9889,1.9824,1.9817,1.9804,1.9814,1.9783,1.9781,1.9768,1.977,1.9771,1.9824,0,0,0,0,0,0,2.0054,2.0046,2.0048,2.0004,1.9992,1.9971,1.9935,1.9926,1.9912,1.9907,1.9863,1.9855,1.9823,1.9808,1.9802,1.981,1.9779,1.9767,1.9769,1.9771,1.9821,1.9827,1.9831,0,0,0,0,0,2.0057,2.0065,2.0048,2.0041,1.9994,1.9971,1.9965,1.9929,1.9913,1.9914,1.9884,1.9856,1.9814,1.9807,1.98,1.9808,1.9767,1.9769,1.977,1.9818,1.9825,1.9831,0,0,0,0,0,0,2.0111,2.0059,2.0039,2.0033,2.0008,1.9962,1.9962,1.9938,1.9915,1.9911,1.9867,1.9857,1.9849,1.9827,1.982,1.9811,1.9786,1.9787,1.9825,1.9831,1.9837,1.9842,1.9778,0,0,0,0,0,2.0123,2.0109,2.0064,2.0063,2.0051,2.0009,1.9998,1.9972,1.9943,1.9932,1.9901,1.9873,1.9853,1.9841,1.982,1.9817,1.9807,1.982,1.9825,1.983,1.9831,1.9827,1.9832,1.9778,1.9778,1.9778,0,0,2.0146,2.0115,2.0109,2.0073,2.005,2.0036,2.0,1.9987,1.9976,1.9929,1.9915,1.9892,1.9858,1.985,1.9844,1.9831,1.9843,1.9832,1.9836,1.9835,1.9829,1.9835,1.9839,1.9779,1.9779,1.9779,0,0,2.0181,2.0157,2.0153,2.0131,2.0097,2.0069,2.0068,2.0026,2.0009,1.9994,1.9958,1.9944,1.9912,1.9889,1.9873,1.99,1.9873,1.9894,1.9922,1.9919,1.9923,1.9927,1.9936,1.9939,1.9895,1.9895,1.9895,0,2.0214,2.0192,2.0154,2.0144,2.0128,2.0086,2.0082,2.0061,2.0022,2.0012,1.9998,1.9956,1.993,1.9916,1.9922,1.9911,1.9908,1.9899,1.9926,1.9929,1.9931,1.994,1.9943,1.9898,1.9898,1.9898,1.9897,0,2.0234,2.022,2.0221,2.0185,2.0169,2.0162,2.0122,2.0111,2.0087,2.0061,2.0046,2.0014,1.9985,1.998,1.9956,1.9963,1.9955,1.9934,1.9909,1.994,1.9947,1.995,1.9902,1.9901,1.99,1.99,0,0,2.0301,2.0244,2.0245,2.0228,2.0187,2.0175,2.0165,2.0138,2.013,2.0104,2.0094,2.0067,2.0047,2.003,2.0002,2.0,2.0023,1.9979,1.9977,1.9988,2.0027,2.0043,2.0047,2.0005,2.0005,2.0006,2.003,0,2.033,2.0311,2.0276,2.0268,2.0254,2.0213,2.0205,2.0178,2.0153,2.0137,2.0109,2.0091,2.0066,2.0055,2.0051,2.0021,2.003,2.0019,1.9995,1.9994,2.0004,2.0051,2.0068,2.0092,2.0032,2.0033,2.0033,0,2.036,2.0337,2.0328,2.0288,2.028,2.0273,2.0246,2.0231,2.02,2.0182,2.0162,2.0133,2.012,2.0097,2.0078,2.0072,2.006,2.0044,2.0044,2.004,2.0015,2.0048,2.0099,2.0103,2.0037,2.0036,2.0036,0,2.041,2.0376,2.0366,2.0353,2.0306,2.0302,2.0282,2.025,2.0236,2.0212,2.0202,2.0176,2.0162,2.0143,2.0107,2.0094,2.0092,2.0066,2.0076,2.0077,2.0077,2.0077,2.0127,2.007,2.007,2.007,2.007,0,2.0445,2.044,2.0388,2.0382,2.0376,2.0336,2.033,2.0307,2.0279,2.0266,2.023,2.0219,2.0173,2.0156,2.0128,2.0116,2.011,2.0095,2.0087,2.0098,2.01,2.0089,2.0087,2.0071,2.0071,2.0071,2.007,0,2.0499,2.0464,2.045,2.0407,2.0396,2.0393,2.0355,2.0347,2.032,2.0306,2.03,2.0257,2.0236,2.0198,2.0167,2.0148,2.0141,2.0129,2.0152,2.0148,2.0159,2.0159,2.0203,2.0206,2.0149,2.0149,2.015,0,2.0523,2.0519,2.0475,2.0465,2.0447,2.043,2.0416,2.0376,2.0363,2.0327,2.0323,2.0299,2.0278,2.0246,2.0212,2.0187,2.0174,2.0191,2.017,2.018,2.0173,2.0174,2.0173,2.0196,2.0197,2.0197,2.0198,0,2.057,2.0553,2.0534,2.0509,2.0493,2.0472,2.0448,2.0441,2.0396,2.0382,2.0361,2.0345,2.0312,2.0289,2.0259,2.0238,2.021,2.0205,2.0206,2.0216,2.023,2.0222,2.0165,2.0204,2.0203,2.0203,2.0202,2.0202,2.061,2.0604,2.0573,2.0553,2.0531,2.051,2.05,2.0472,2.0453,2.0424,2.0402,2.0382,2.035,2.0308,2.0288,2.0271,2.0258,2.026,2.026,2.0261,2.0265,2.0233,2.0266,2.0265,2.0265,2.0265,2.0265,0,2.0655,2.0633,2.0615,2.0583,2.0567,2.0543,2.0516,2.0504,2.0487,2.046,2.044,2.0415,2.0392,2.0356,2.033,2.0324,2.031,2.0318,2.0318,2.0314,2.0278,2.028,2.0329,2.0329,2.0329,2.0329,2.0329,2.0329,2.0677,2.0666,2.0645,2.0622,2.0599,2.058,2.0566,2.0546,2.0525,2.0498,2.0479,2.0456,2.0426,2.0397,2.0375,2.0365,2.0357,2.0369,2.0355,2.0322,2.0316,2.031,2.0312,2.0367,2.0367,2.0391,2.0392,2.0392]}]]